Location: Pedimozza
(42.0500°N, 9.3500°E)
Time: 05:46:33
(UTC+00:00)

USA 267 - Pass Details

Date: 19 August 2019
Orbit: 1102 x 1106 km, 123.0° (Epoch: 17 September)

Event Time Altitude Azimuth Distance (km) Brightness Sun altitude
Rises 18:35:11 0° 46° (NE) 3,925 5.9 -3.9°
Reaches altitude 10° 18:37:44 10° 42° (NE) 2,966 5.3 -4.3°
Maximum altitude 18:44:00 51° 329° (NNW) 1,361 4.2 -5.4°
Drops below altitude 10° 18:50:16 10° 256° (WSW) 2,958 6.4 -6.5°
Sets 18:52:48 0° 251° (WSW) 3,914 7.0 -6.9°
